Location: UBC Liquid-Mirror Observatory
(49.2876°N, 122.5728°W)
Time: 16:54:54
(UTC-07:00)

KITSAT 1 - Visible Passes

Search period start: 28 September 2016 00:00
Search period end: 08 October 2016 00:00
Orbit: 1310 x 1320 km, 66.1° (Epoch: 28 September)

Date Brightness Start Highest point End Pass type
(mag) Time Alt. Az. Time Alt. Az. Time Alt. Az.
28 Sep 10.6 19:25:34 10° NW 19:33:22 48° NE 19:41:07 10° ESE visible
28 Sep 10.6 21:21:09 10° NW 21:29:03 59° WSW 21:33:36 27° S visible
28 Sep 12.3 23:19:31 10° WNW 23:22:45 13° W 23:25:36 11° WSW visible
29 Sep 10.4 19:41:41 10° NW 19:49:43 60° NE 19:57:42 10° SE visible
29 Sep 11.1 21:37:27 10° NW 21:44:54 43° WSW 21:49:42 22° S visible
30 Sep 10.2 19:57:47 10° NW 20:05:56 78° NE 20:13:54 11° SE visible
30 Sep 11.6 21:53:54 10° NW 22:00:38 30° WSW 22:05:55 15° SSW visible
01 Oct 10.3 20:13:55 10° NW 20:22:03 81° WSW 20:30:06 10° SSE visible
01 Oct 12.1 22:10:41 10° WNW 22:16:15 21° WSW 22:21:48 10° SSW visible
02 Oct 10.7 20:30:06 10° NW 20:38:01 60° WSW 20:45:54 10° SSE visible
02 Oct 12.5 22:28:16 10° WNW 22:31:44 13° W 22:35:12 10° WSW visible
03 Oct 11.2 20:46:23 10° NW 20:53:53 44° WSW 21:01:21 10° S visible
04 Oct 10.3 19:06:44 10° NW 19:14:53 76° NE 19:22:58 10° SE visible
04 Oct 11.8 21:02:49 10° NW 21:09:37 31° WSW 21:16:24 10° SSW visible
05 Oct 10.4 19:22:52 10° NW 19:31:00 83° WSW 19:39:04 10° SSE visible
05 Oct 12.3 21:19:35 10° WNW 21:25:14 21° WSW 21:30:54 10° SSW visible
06 Oct 10.8 19:39:02 10° NW 19:46:59 62° WSW 19:54:52 10° SSE visible
06 Oct 12.6 21:37:02 10° WNW 21:40:44 14° W 21:44:26 10° SW visible
07 Oct 11.3 19:55:18 10° NW 20:02:51 45° WSW 20:10:22 10° S visible
